FENGYUN 1C DEB, 37464

Orbit data source: Space-Track

FENGYUN 1C DEB, 37464 is space debris in SSO originally from a launch on Mon, 10 May 1999 UTC launched from the Taiyaun Space Center, China (TSC). Fengyun 1C debris stems from the Chinese weather satellite Fengyun-1C, which was intentionally destroyed by a Chinese anti-satellite missile in 2007. This event dramatically increased the amount of space debris, with thousands of trackable fragments posing hazards to satellites and human spaceflight. The Fengyun 1C debris cloud has become a focal point in discussions about space sustainability and the need for international regulations to prevent the creation of new debris.

Loading next visibility...
Identifier
37464, 1999-025EJJ
Orbit
SSO
Country
Flag of CNCN / PRC
Related business
Manufacturer
Unknown
Mission
Spacecraft
Bus & Motor
Unknown
Mass
Unknown
Launch date (UTC)
1999-05-10 (27 years ago)
Launch vehicle
Unknown
Launch site
Taiyaun Space Center, China (TSC)
Object type
Payload
Rocket body
Debris
Shape & HBR
Unknown shape, 0.1 m
Radar Cross Section
Small (<0.1 m²)

Expand to show TLE details & history
Last TLE update: 6 days ago

TLE from 6 days ago
0 FENGYUN 1C DEB
1 37464U 99025EJJ 26202.22224613  .00001771  00000-0  15703-2 0  9997
2 37464 102.7103 191.2411 0452805 354.2609   5.3429 13.48494324638925
Epoch: 2026-07-21T05:20Z
TLE epoch observation values (Epoch: 2026-07-21T05:20:02.065Z)
Latitude
-0.00001°
Longitude
172.23746°
Altitude
744.419 km
Speed
7.649 km/s
True Right ascension
12h 44m 57s
True Declination
0° 00' 00"
Sunlit
Object was in daylight at epoch
Visualization orbit readout
Latitude
Unknown
Longitude
Unknown
Altitude
Unknown
Speed
Unknown
Apparent Right ascension
Unknown
Apparent Declination
Unknown
Sunlit
N/A
Visualization observer readout
Local Sidereal Time
22:01:12
Azimuth
Unknown
Elevation
Unknown
Doppler factor
Unknown
Orbital elements
Apogee altitude
1,412.771 km
Perigee altitude
737.782 km
Semi-major axis
7,453.413 km
Eccentricity
0.04528
Inclination
102.7103°
RAAN
191.2411°
Arg. of periapsis
354.2609°
True anomaly
5.85483°
Mean anomaly
5.3429°
Eccentric anomaly
5.59588°
Mean motion
3.37295 °/min
Orbital period
106.73 mins
BSTAR
0.0015703
Loading maneuver chart data...
Computing Atmospheric mass density...

Documentation

Showing up to 5 results
|